This is the latest recevied weather packets stored in our database for station/object WP3OF-2. If no packets are shown the sender has not sent any weather packets the latest 10 day(s).
| Time | Temp. | Humidity | Pressure | Rain* | Wind** | Luminosity | Snow |
|---|---|---|---|---|---|---|---|
| 1778086635 | 23.89° C | 83% | 1028.2 hPa | 0 mm | - | 745 W/m² | - |
| 1778086332 | 23.89° C | 83% | 1028.5 hPa | 0 mm | - | 264 W/m² | - |
| 1778086029 | 25° C | 81% | 1028.2 hPa | 0 mm | - | 437 W/m² | - |
| 1778085726 | 23.89° C | 83% | 1028.2 hPa | 0 mm | - | 944 W/m² | - |
| 1778085422 | 24.44° C | 83% | 1028.2 hPa | 0 mm | - | 428 W/m² | - |
| 1778085117 | 23.89° C | 84% | 1028.2 hPa | 0 mm | - | 965 W/m² | - |
| 1778084813 | 24.44° C | 83% | 1028.5 hPa | 0 mm | - | 308 W/m² | - |
| 1778084511 | 24.44° C | 83% | 1028.5 hPa | 0 mm | - | 909 W/m² | - |
| 1778084208 | 25° C | 83% | 1028.5 hPa | 0 mm | - | 337 W/m² | - |
| 1778083905 | 23.89° C | 81% | 1028.5 hPa | 0 mm | - | 928 W/m² | - |
| 1778083603 | 23.33° C | 82% | 1028.5 hPa | 0 mm | - | 894 W/m² | - |
| 1778083300 | 23.89° C | 83% | 1028.5 hPa | 0 mm | - | 924 W/m² | - |
| 1778082998 | 23.89° C | 84% | 1028.5 hPa | 0 mm | - | 304 W/m² | - |
| 1778082694 | 23.89° C | 85% | 1029 hPa | 0 mm | - | 157 W/m² | - |
| 1778081557 | 23.33° C | 83% | 1029 hPa | 0 mm | - | 832 W/m² | - |
| 1778081253 | 22.78° C | 83% | 1029 hPa | 0 mm | - | 916 W/m² | - |
| 1778080951 | 22.78° C | 84% | 1029 hPa | 0 mm | - | 865 W/m² | - |
| 1778080650 | 22.78° C | 86% | 1029 hPa | 0 mm | - | 199 W/m² | - |
| 1778080346 | 22.78° C | 86% | 1029 hPa | 0 mm | - | 854 W/m² | - |
| 1778080042 | 22.78° C | 85% | 1028.5 hPa | 0 mm | - | 234 W/m² | - |
| 1778079740 | 22.78° C | 86% | 1029 hPa | 0 mm | - | 327 W/m² | - |
| 1778079437 | 22.78° C | 85% | 1029 hPa | 0 mm | - | 886 W/m² | - |
| 1778079133 | 22.78° C | 86% | 1029 hPa | 0 mm | - | 819 W/m² | - |
| 1778078831 | 22.78° C | 88% | 1029 hPa | 0 mm | - | 893 W/m² | - |
| 1778078527 | 21.67° C | 87% | 1029 hPa | 0 mm | - | 186 W/m² | - |
* Rain latest hour (hover to see other rain measurements)
** Current wind speed in m/s (hover to see current wind gust speed)